Weather History for KJYG - February, 2014

Change the Weather History Date:

Tuesday, February 11, 2014

  Actual Average Record
Temperature  
Mean Temperature 2 °F -  
Max Temperature 17 °F 26 °F 86 °F (1999)
Min Temperature -13 °F 6 °F -24 °F (1988)
Degree Days  
Heating Degree Days 63    
Moisture  
Dew Point -2 °F    
Average Humidity 74    
Maximum Humidity 84    
Minimum Humidity 67    
Precipitation  
Precipitation 0.00 in - - ()
Sea Level Pressure  
Sea Level Pressure 30.23 in    
Wind  
Wind Speed 11 mph (SSE)    
Max Wind Speed 25 mph    
Max Gust Speed 31 mph    
Visibility 10 miles    
Events      
Averages and records for this station are not official NWS values.
T = Trace of Precipitation, MM = Missing Value Source: NWS Daily Summary

Daily Weather History Graph

Daily Weather History Graph

Search for Another Location

Airport or City:

Trip Planner

Search our weather history database for the weather conditions in past years. The results will help you decide how hot, cold, wet, or windy it might be!

Date:

Astronomy

Feb. 11, 2014 Rise Set
Actual Time 7:22 AM CST 5:42 PM CST
Civil Twilight 6:53 AM CST 6:12 PM CST
Nautical Twilight 6:19 AM CST 6:46 PM CST
Astronomical Twilight 5:45 AM CST 7:19 PM CST
Moon 3:01 PM CST (2/11) 5:03 AM CST (2/11)
Length of Visible Light 11h 19m
Length of Day
10h 19m
Waxing Gibbous, 91% of the Moon is Illuminated
Feb 11
Waxing Gibbous
Feb 14
Full
Feb 22
Last Quarter
Mar 1
New
Mar 8
First Quarter

Hourly Weather History & Observations

Time (CST) Temp. Windchill Dew Point Humidity Pressure Visibility Wind Dir Wind Speed Gust Speed Precip Events Conditions
12:15 AM -9.4 °F -20.9 °F -16.6 °F 71% 30.46 in 10.0 mi SSW 4.6 mph - N/A   Clear
12:35 AM -9.4 °F -18.6 °F -14.8 °F 77% 30.45 in 10.0 mi SSW 3.5 mph - N/A   Clear
12:55 AM -9.4 °F -18.6 °F -16.6 °F 71% 30.45 in 10.0 mi SSW 3.5 mph - N/A   Clear
1:15 AM -11.2 °F - -16.6 °F 77% 30.44 in 10.0 mi Calm Calm - N/A   Clear
1:34 AM -9.4 °F -20.9 °F -16.6 °F 71% 30.44 in 10.0 mi South 4.6 mph - N/A   Clear
1:55 AM -9.4 °F - -14.8 °F 77% 30.43 in 10.0 mi Calm Calm - N/A   Clear
2:14 AM -11.2 °F - -16.6 °F 77% 30.43 in 10.0 mi Calm Calm - N/A   Clear
2:35 AM -11.2 °F -23.0 °F -16.6 °F 77% 30.43 in 10.0 mi SSE 4.6 mph - N/A   Clear
2:55 AM -11.2 °F - -16.6 °F 77% 30.42 in 10.0 mi Calm Calm - N/A   Clear
3:15 AM -11.2 °F -20.6 °F -16.6 °F 77% 30.42 in 10.0 mi South 3.5 mph - N/A   Clear
3:35 AM -11.2 °F -20.6 °F -16.6 °F 77% 30.42 in 10.0 mi South 3.5 mph - N/A   Clear
3:54 AM -11.2 °F -24.8 °F -16.6 °F 77% 30.41 in 10.0 mi South 5.8 mph - N/A   Clear
4:15 AM -11.2 °F -23.0 °F -16.6 °F 77% 30.41 in 10.0 mi SSE 4.6 mph - N/A   Clear
4:35 AM -11.2 °F -23.0 °F -16.6 °F 77% 30.40 in 10.0 mi SSE 4.6 mph - N/A   Clear
4:55 AM -13.0 °F -25.1 °F -18.4 °F 77% 30.39 in 10.0 mi SE 4.6 mph - N/A   Clear
5:15 AM -13.0 °F -25.1 °F -18.4 °F 77% 30.39 in 10.0 mi SE 4.6 mph - N/A   Clear
5:35 AM -11.2 °F -24.8 °F -16.6 °F 77% 30.39 in 10.0 mi SSE 5.8 mph - N/A   Clear
5:55 AM -11.2 °F -24.8 °F -16.6 °F 77% 30.39 in 10.0 mi SSE 5.8 mph - N/A   Clear
6:14 AM -11.2 °F -24.8 °F -16.6 °F 77% 30.38 in 10.0 mi SSE 5.8 mph - N/A   Clear
6:35 AM -11.2 °F -26.4 °F -16.6 °F 77% 30.37 in 10.0 mi SSE 6.9 mph - N/A   Clear
6:55 AM -9.4 °F -25.6 °F -14.8 °F 77% 30.37 in 10.0 mi SSE 8.1 mph - N/A   Clear
7:15 AM -7.6 °F -24.6 °F -11.2 °F 84% 30.35 in 10.0 mi SSE 9.2 mph - N/A   Clear
7:35 AM -7.6 °F -23.4 °F -11.2 °F 84% 30.36 in 10.0 mi SSE 8.1 mph - N/A   Clear
7:55 AM -7.6 °F -26.6 °F -11.2 °F 84% 30.35 in 10.0 mi SSE 11.5 mph - N/A   Clear
8:14 AM -5.8 °F -26.0 °F -11.2 °F 77% 30.34 in 10.0 mi SSE 13.8 mph - N/A   Clear
8:35 AM -4.0 °F -24.5 °F -9.4 °F 78% 30.33 in 10.0 mi SSE 15.0 mph - N/A   Clear
8:55 AM -2.2 °F -23.5 °F -9.4 °F 71% 30.33 in 10.0 mi South 17.3 mph 20.7 mph N/A   Clear
9:15 AM -0.4 °F -21.7 °F -7.6 °F 72% 30.32 in 10.0 mi SSE 18.4 mph - N/A   Clear
9:35 AM -0.4 °F -19.9 °F -7.6 °F 72% 30.32 in 10.0 mi South 15.0 mph 21.9 mph N/A   Clear
9:55 AM 1.4 °F -18.8 °F -5.8 °F 72% 30.32 in 10.0 mi SSE 17.3 mph - N/A   Clear
10:15 AM 3.2 °F -16.5 °F -4.0 °F 72% 30.32 in 10.0 mi South 17.3 mph - N/A   Clear
10:34 AM 5.0 °F -14.7 °F -2.2 °F 72% 30.31 in 10.0 mi South 18.4 mph 21.9 mph N/A   Clear
10:55 AM 5.0 °F -14.7 °F -2.2 °F 72% 30.31 in 10.0 mi SSE 18.4 mph - N/A   Clear
11:15 AM 6.8 °F -12.9 °F -0.4 °F 72% 30.29 in 10.0 mi SSE 19.6 mph - N/A   Clear
11:34 AM 8.6 °F -10.0 °F -0.4 °F 67% 30.28 in 10.0 mi South 18.4 mph 24.2 mph N/A   Clear
11:55 AM 8.6 °F -11.9 °F -0.4 °F 67% 30.26 in 10.0 mi SSE 23.0 mph 26.5 mph N/A   Clear
12:15 PM 8.6 °F -11.4 °F 1.4 °F 73% 30.24 in 10.0 mi SSE 21.9 mph 29.9 mph N/A   Clear
12:34 PM 10.4 °F -9.1 °F 1.4 °F 67% 30.22 in 10.0 mi SSE 21.9 mph - N/A   Clear
12:55 PM 10.4 °F -9.1 °F 1.4 °F 67% 30.21 in 10.0 mi SSE 21.9 mph 27.6 mph N/A   Clear
1:15 PM 12.2 °F -6.7 °F 3.2 °F 67% 30.20 in 10.0 mi South 21.9 mph 28.8 mph N/A   Clear
1:34 PM 12.2 °F -7.5 °F 3.2 °F 67% 30.18 in 10.0 mi SSE 24.2 mph 29.9 mph N/A   Clear
1:55 PM 12.2 °F -6.3 °F 3.2 °F 67% 30.17 in 10.0 mi SSE 20.7 mph 28.8 mph N/A   Mostly Cloudy
2:15 PM 14.0 °F -4.7 °F 6.8 °F 73% 30.16 in 10.0 mi SSE 23.0 mph 27.6 mph N/A   Overcast
2:34 PM 14.0 °F -5.1 °F 5.0 °F 67% 30.14 in 10.0 mi SSE 24.2 mph 27.6 mph N/A   Overcast
2:55 PM 14.0 °F -4.3 °F 6.8 °F 73% 30.13 in 10.0 mi SSE 21.9 mph 26.5 mph N/A   Overcast
3:15 PM 14.0 °F -3.0 °F 6.8 °F 73% 30.12 in 10.0 mi SSE 18.4 mph 28.8 mph N/A   Overcast
3:35 PM 15.8 °F -1.5 °F 6.8 °F 68% 30.11 in 10.0 mi SSE 20.7 mph 28.8 mph N/A   Overcast
3:55 PM 15.8 °F -1.1 °F 8.6 °F 73% 30.10 in 10.0 mi SSE 19.6 mph 26.5 mph N/A   Overcast
4:15 PM 15.8 °F -1.9 °F 8.6 °F 73% 30.09 in 10.0 mi SSE 21.9 mph 25.3 mph N/A   Overcast
4:35 PM 15.8 °F -3.1 °F 8.6 °F 73% 30.07 in 10.0 mi SSE 25.3 mph 28.8 mph N/A   Overcast
4:55 PM 15.8 °F -1.9 °F 8.6 °F 73% 30.06 in 10.0 mi SSE 21.9 mph 28.8 mph N/A   Overcast
5:15 PM 15.8 °F -2.7 °F 8.6 °F 73% 30.05 in 10.0 mi SSE 24.2 mph 29.9 mph N/A   Overcast
5:35 PM 15.8 °F -3.1 °F 8.6 °F 73% 30.04 in 10.0 mi SSE 25.3 mph 31.1 mph N/A   Overcast
5:55 PM 15.8 °F -3.1 °F 8.6 °F 73% 30.04 in 10.0 mi SSE 25.3 mph 29.9 mph N/A   Overcast
6:14 PM 15.8 °F -1.5 °F 8.6 °F 73% 30.03 in 10.0 mi SSE 20.7 mph 28.8 mph N/A   Overcast
6:35 PM 15.8 °F -1.9 °F 8.6 °F 73% 30.03 in 10.0 mi SSE 21.9 mph 29.9 mph N/A   Overcast
6:55 PM 15.8 °F -2.7 °F 8.6 °F 73% 30.03 in 10.0 mi SSE 24.2 mph 28.8 mph N/A   Overcast
7:14 PM 15.8 °F -2.3 °F 8.6 °F 73% 30.03 in 10.0 mi SSE 23.0 mph 29.9 mph N/A   Overcast
7:35 PM 15.8 °F -1.1 °F 8.6 °F 73% 30.04 in 10.0 mi SSE 19.6 mph 24.2 mph N/A   Overcast
7:55 PM 15.8 °F -0.6 °F 8.6 °F 73% 30.03 in 10.0 mi SSE 18.4 mph 24.2 mph N/A   Overcast
8:15 PM 15.8 °F -0.6 °F 8.6 °F 73% 30.02 in 10.0 mi SSE 18.4 mph 24.2 mph N/A   Overcast
8:35 PM 15.8 °F -1.5 °F 8.6 °F 73% 30.02 in 10.0 mi SSE 20.7 mph 25.3 mph N/A   Overcast
8:55 PM 15.8 °F 0.3 °F 10.4 °F 79% 30.03 in 10.0 mi SSE 16.1 mph - N/A   Overcast
9:15 PM 15.8 °F -0.6 °F 10.4 °F 79% 30.03 in 10.0 mi South 18.4 mph 26.5 mph N/A   Overcast
9:35 PM 17.6 °F 2.2 °F 10.4 °F 73% 30.04 in 10.0 mi South 17.3 mph 24.2 mph N/A   Mostly Cloudy
9:55 PM 17.6 °F 2.7 °F 10.4 °F 73% 30.03 in 10.0 mi South 16.1 mph - N/A   Scattered Clouds
10:14 PM 17.6 °F 1.7 °F 10.4 °F 73% 30.02 in 10.0 mi South 18.4 mph 25.3 mph N/A   Mostly Cloudy
10:35 PM 17.6 °F 1.7 °F 10.4 °F 73% 30.02 in 10.0 mi South 18.4 mph 23.0 mph N/A   Mostly Cloudy
10:55 PM 17.6 °F 2.2 °F 10.4 °F 73% 30.01 in 10.0 mi South 17.3 mph 23.0 mph N/A   Mostly Cloudy
11:15 PM 17.6 °F 2.7 °F 10.4 °F 73% 30.01 in 10.0 mi South 16.1 mph 21.9 mph N/A   Scattered Clouds
11:35 PM 17.6 °F 2.2 °F 10.4 °F 73% 30.01 in 10.0 mi South 17.3 mph 24.2 mph N/A   Mostly Cloudy
11:55 PM 17.6 °F 1.3 °F 10.4 °F 73% 30.01 in 10.0 mi South 19.6 mph 23.0 mph N/A   Mostly Cloudy